Search flights

Charles-De-Gaulle Airport, Paris (LFPG)

Airport Weather & NOTAM's

METAR for:LFPG (Paris/De Gaulle Arpt, ID, FR)
Text:LFPG 140400Z 10003KT 8000 3000 VCFG NSC 13/12 Q1013 TEMPO 0400 BCFG
Conditions at:0400 UTC 14 Jul 2024
Temperature: 13.0°C ( 55°F)
Dewpoint: 12.0°C ( 54°F) [RH = 94%]
Pressure (altimeter):29.91 inches Hg (1013.0 mb)
Winds:from the E (100 degrees) at 3 MPH (3 knots; 1.5 m/s)
Visibility:5 sm (8 km)
Ceiling:at least 12,000 feet AGL
Clouds:sky clear below 12,000 feet AGL
Weather:VCFG (fog in vicinity)
TAF for:LFPG (Paris/De Gaulle Arpt, ID, FR) issued at 0046 UTC 14 Jul 2024
Text:TAF AMD LFPG 140046Z 1400/1506 VRB02KT 8000 NSC TX25/1416Z TN12/1404Z
Forecast period:0000 to 0700 UTC 14 July 2024
Forecast type:FROM: standard forecast or significant change
Winds:variable direction winds at 2 MPH (2 knots; 1.0 m/s)
Visibility:5 sm (8 km)
Clouds:missing
Temperature:MAX 25°C at 1600 UTC 14 Jul 2024
Temperature:MIN 12°C at 0400 UTC 14 Jul 2024
Text:TEMPO 1401/1406 4000 BR
Forecast period:0100 to 0600 UTC 14 July 2024
Forecast type:TEMPORARY: The following changes expected for less than half the time period
Visibility:2.49 sm (4.01 km)
Weather:BR (mist)
Text:PROB40
Forecast period:0100 to 0600 UTC 14 July 2024
Forecast type:TEMPORARY: The following changes expected for less than half the time period
Visibility:0.25 sm (0.40 km)
Weather:BCFG (patches of fog)
Text:TEMPO 1401/1406 0400 BCFG
Forecast period:0700 UTC 14 July 2024 to 0600 UTC 15 July 2024
Forecast type:BECOMING: Conditions expected to become as follows by 0900 UTC 14 July 2024
Winds:from the SSW (200 degrees) at 6 MPH (5 knots; 2.6 m/s)
Visibility:5 sm (8 km)
Clouds:missing

Live Departures & Arrivals

There are currently no arrivals or departures for this airport.

Departures History (last 12 months)

Flight No. Dest. Aircraft Date
FX 309 VABB FEDEX-B77F 2024-07-11 00:00:00
CONNECT 62 EFHK FEDEX-B77F 2024-07-06 00:00:00
FX 309 VABB FEDEX-B77F 2024-06-30 00:00:00
FX 682 WSSS FEDEX-B77F 2024-06-27 00:00:00
FX 865 LFBO GENERIC-B7... 2024-06-26 00:00:00
FX291 EHAM FEDEX-B77F 2024-06-25 00:00:00
FX313 RJAA FEDEX-B77F 2024-06-23 00:00:00
FX 276 KEWR FEDEX-B77F 2024-06-24 00:00:00
FXCTR MSLP FEDEX-B77F 2024-06-22 00:00:00
CONNECT11 EDDF FEDEX-B77F 2024-06-23 00:00:00
CONNECT111 EDDF FEDEX-B77F 2024-06-20 00:00:00
FX 304 EFHK FEDEX-MD11... 2024-06-20 00:00:00
CONNECT111 EDDF FEDEX-B77F 2024-06-19 00:00:00
FX 291 EHAM FEDEX-MD11... 2024-06-18 00:00:00
FX 704 OMDW FEDEX-B77F 2024-06-16 00:00:00
CONNECT111 EDDF FEDEX-B77F 2024-06-17 00:00:00
CONNECT111 EDDF FEDEX-B77F 2024-06-17 00:00:00
FX 704 OMDW FEDEX-B77F 2024-06-16 00:00:00
CONNECT 111 EDDF FEDEX-B77F 2024-06-18 00:00:00
CONNECT101 EBLG FEDEX-B77F 2024-06-14 00:00:00
CONNECT103 EINN FEDEX-B77F 2024-06-14 00:00:00
CONNECT101 EBLG FEDEX-B77F 2024-06-13 00:00:00
FX 317 EGCC FEDEX-MD11... 2024-06-12 00:00:00
CONNECT103 EINN FEDEX-B77F 2024-06-12 00:00:00
CONNECT101 EBLG FEDEX-B77F 2024-06-12 00:00:00
CONNECT103 EINN FEDEX-B77F 2024-06-11 00:00:00
CONNECT103 EINN FEDEX-B77F 2024-06-11 00:00:00
CONNECT103 EINN FEDEX-B77F 2024-06-11 00:00:00
CONNECT103 EINN FEDEX-B77F 2024-06-10 00:00:00
CONNECT101 EBLG FEDEX-B77F 2024-06-10 00:00:00
CONNECT101 EBLG FEDEX-B77F 2024-06-09 00:00:00
FX ATC LFPG IFATC 2024-06-09 00:00:00
CONNECT103 EINN FEDEX-B77F 2024-06-09 00:00:00
CONNECT10 EINN FEDEX-B77F 2024-06-09 00:00:00
FX158 KMEM FEDEX-B77F 2024-06-08 00:00:00
FX 682 WSSS FEDEX-B77F 2024-06-09 00:00:00
CONNECT 02 EKCH FEDEX-MD11... 2024-06-08 00:00:00
CONNECT02 EKCH FEDEX-MD11... 2024-06-08 00:00:00
CONNECT 02 EKCH FEDEX-MD11... 2024-06-07 00:00:00
CONNECT02 EKCH FEDEX-MD11... 2024-06-04 00:00:00
FX 309 VABB FEDEX-B77F 2024-06-01 00:00:00
FX309 VABB FEDEX-MD11... 2024-06-01 00:00:00
FX 682 WSSS FEDEX-B77F 2024-06-01 00:00:00
FX 682 WSSS FEDEX-B77F 2024-06-01 00:00:00
CONNECT11 EGCC FEDEX-MD11... 2024-06-02 00:00:00
FX CTR ZSPD FEDEX-DC10... 2024-06-01 00:00:00
FX 306 VHHH FEDEX-B77F 2024-05-30 00:00:00
FX 289 EGSS GENERIC-B7... 2024-05-30 00:00:00
FX CTR OMDB FEDEX-B77F 2024-05-28 00:00:00
FX 682 WSSS FEDEX-B77F 2024-05-27 00:00:00
FX 815 LTFM IF-LIVERY-... 2024-05-21 00:00:00
FX 276 KEWR FEDEX-B77F 2024-05-20 00:00:00
FX 682 WSSS FEDEX-B77F 2024-05-19 00:00:00
FX ATC LFPG IFATC 2024-05-16 00:00:00
CONNECT23 EHAM FEDEX-B77F 2024-05-16 00:00:00
FXCL 004 LEMD FEDEX-B77F 2024-05-16 00:00:00
FXCL 004 LEMD FEDEX-B77F 2024-05-15 00:00:00
CONNECT 23 EHAM FEDEX-B77F 2024-05-14 00:00:00
FX CTR EGKK FEDEX-B77F 2024-05-13 00:00:00
FXCL 004 LEMD FEDEX-B77F 2024-05-12 00:00:00
FX 311 LLBG FEDEX-B77F 2024-05-10 00:00:00
FXCL 004 LEMD FEDEX-B77F 2024-05-09 00:00:00
FXCL 004 LEMD FEDEX-B77F 2024-05-09 00:00:00
FX CTR BIKF FEDEX-B77F 2024-05-08 00:00:00
FX 290 EDDK FEDEX-B77F 2024-05-08 00:00:00
FXCTR YSSY FEDEX-B77F 2024-05-06 00:00:00
CONNECT 110 LIMC FEDEX-MD11... 2024-05-04 00:00:00
CONNECT 110 LIMC FEDEX-MD11... 2024-05-02 00:00:00
CONNECT 110 LIMC FEDEX-MD11... 2024-05-02 00:00:00
CONNECT110 LIMC FEDEX-MD11... 2024-04-30 00:00:00
KE 004 RKSI FEDEX-B77F 2024-04-28 00:00:00
FX ATC LFPG IFATC 2024-04-29 00:00:00
FXCTR OMDB FEDEX-B77F 2024-04-27 00:00:00
FX 303 ZGGG FEDEX-MD11... 2024-04-26 00:00:00
CONNECT111 EDDK FEDEX-MD11... 2024-04-25 00:00:00
CONNECT111 EDDK FEDEX-MD11... 2024-04-23 00:00:00
CONNECT 111 EDDK FEDEX-MD11... 2024-04-23 00:00:00
CONNECT 111 EDDK FEDEX-MD11... 2024-04-23 00:00:00
FX ATC LFPG IFATC 2024-04-23 00:00:00
CONNECT 111 EDDK FEDEX-MD11... 2024-04-21 00:00:00
FX 682 WSSS FEDEX-B77F 2024-04-21 00:00:00
CONNECT 549 LOWW FEDEX-B77F 2024-04-19 00:00:00
CONNECT549 LOWW FEDEX-B77F 2024-04-20 00:00:00
FX CTR GCLP FEDEX-MD11... 2024-04-18 00:00:00
FX 277 EDDM FEDEX-DC10... 2024-04-18 00:00:00
FX 1159 LFSB IF-LIVERY-... 2024-04-18 00:00:00
CONNECT 549 LOWW FEDEX-B77F 2024-04-17 00:00:00
CONNECT 549 LOWW FEDEX-B77F 2024-04-15 00:00:00
CONNECT549 LOWW FEDEX-B77F 2024-04-14 00:00:00
CONNECT 549 LOWW FEDEX-B77F 2024-04-14 00:00:00
CONNECT 549 LOWW FEDEX-B77F 2024-04-14 00:00:00
CONNECT 549 LOWW FEDEX-B77F 2024-04-14 00:00:00
FX 687 EBLG FEDEX-B77F 2024-04-12 00:00:00
FX276 KEWR FEDEX-MD11... 2024-04-09 00:00:00
FX 682 WSSS FEDEX-B77F 2024-04-09 00:00:00
FX CTR OMDB FEDEX-B77F 2024-04-07 00:00:00
FXCTR OMDB FEDEX-B77F 2024-04-05 00:00:00
FXCTR PANC FEDEX-B77F 2024-04-02 00:00:00
FX 158 KMEM FEDEX-B77F 2024-04-02 00:00:00
FX CTR OMDB FEDEX-MD11... 2024-04-01 00:00:00
FX 317 EGCC FEDEX-B77F 2024-04-01 00:00:00
FX 308 KIND FEDEX-B77F 2024-04-01 00:00:00
FX 1159 LFSB IF-LIVERY-... 2024-03-31 00:00:00
FX 815 LTFM IF-LIVERY-... 2024-03-29 00:00:00
FX1289 VOBL FEDEX-B77F 2024-03-29 00:00:00
FX 295 EGBB IF-LIVERY-... 2024-03-29 00:00:00
FXCTR KAFW FEDEX-B77F 2024-03-26 00:00:00
FX291 EHAM FEDEX-B77F 2024-03-26 00:00:00
FX 303 ZGGG FEDEX-MD11... 2024-03-23 00:00:00
FXCTR VABB FEDEX-B77F 2024-03-21 00:00:00
FX 276 KEWR FEDEX-B77F 2024-03-19 00:00:00
CONNECT 2 KMEM FEDEX-B77F 2024-03-17 00:00:00
CONNECT 2 KMEM FEDEX-B77F 2024-03-16 00:00:00
FX 306 VHHH FEDEX-MD11... 2024-03-14 00:00:00
FX CTR LPTN GENERIC-B7... 2024-03-13 00:00:00
CONNECT404 OMDW FEDEX-B77F 2024-03-13 00:00:00
CONNECT 70 LEMD FEDEX-MD11... 2024-03-12 00:00:00
CONNECT2 KMEM FEDEX-B77F 2024-03-11 00:00:00
FX CTR OMDB FEDEX-B77F 2024-03-09 00:00:00
CONNECT 604 LOWW FEDEX-B77F 2024-03-09 00:00:00
FX CTR VOBL FEDEX-B77F 2024-03-07 00:00:00
FX CTR KMIA FEDEX-B77F 2024-03-05 00:00:00
CONNECT 604 LOWW FEDEX-B77F 2024-03-04 00:00:00
FX 682 WSSS FEDEX-B77F 2024-03-02 00:00:00
FX 682 WSSS FEDEX-B77F 2024-03-02 00:00:00
FX 303 ZGGG FEDEX-B77F 2024-03-01 00:00:00
FX CTR OMDB FEDEX-B77F 2024-02-25 00:00:00
FX 289 EGSS FEDEX-B77F 2024-02-25 00:00:00
CONNECT 181 EKCH FEDEX-MD11... 2024-02-24 00:00:00
FX720 EBLG FEDEX-B77F 2024-02-23 00:00:00
CONNECT18 EKCH FEDEX-MD11... 2024-02-22 00:00:00
FX302 LGAV FEDEX-B77F 2024-02-21 00:00:00
FX 310 VABB FEDEX-B77F 2024-02-21 00:00:00
CONNECT 181 EKCH FEDEX-MD11... 2024-02-19 00:00:00
FX 314 RJAA FEDEX-B77F 2024-02-14 00:00:00
CONNECT 7184 LMML FEDEX-DC10... 2024-02-14 00:00:00
FX CTR PANC FEDEX-B77F 2024-02-13 00:00:00
FX 281 LEMD FEDEX-MD11... 2024-02-13 00:00:00
FX 158 KMEM FEDEX-B77F 2024-02-12 00:00:00
CONNECT 7184 LMML FEDEX-DC10... 2024-02-11 00:00:00
FX 715 WSSS FEDEX-B77F 2024-02-11 00:00:00
FX 914 EIDW GENERIC-B7... 2024-02-09 00:00:00
FX 715 WSSS FEDEX-B77F 2024-02-09 00:00:00
FX 294 LEBL FEDEX-B77F 2024-02-09 00:00:00
FX 277 KEWR FEDEX-B77F 2024-02-09 00:00:00
FX 158 KMEM FEDEX-MD11... 2024-02-08 00:00:00
FX ATC LFPG IFATC 2024-02-05 00:00:00
FX 285 OMDB FEDEX-MD11... 2024-02-06 00:00:00
FX 158 KMEM FEDEX-B77F 2024-02-06 00:00:00
FX 158 KMEM FEDEX-B77F 2024-02-06 00:00:00
FX 722 EDDF FEDEX-B77F 2024-02-01 00:00:00
FX277 KEWR FEDEX-B77F 2024-01-29 00:00:00
FX281 LEMD FEDEX-B77F 2024-01-28 00:00:00
FX281 LEMD FEDEX-B77F 2024-01-28 00:00:00
FX 715 WSSS FEDEX-B77F 2024-01-28 00:00:00
FX CTR VTBS FEDEX-B77F 2024-01-24 00:00:00
FX CTR KLAX FEDEX-MD11... 2024-01-21 00:00:00
FX 300 LTBA FEDEX-B77F 2024-01-21 00:00:00
FX 158 KMEM FEDEX-B77F 2024-01-20 00:00:00
FX 292 EHAM FEDEX-B77F 2024-01-19 00:00:00
FX CTR KMEM FEDEX-MD11... 2024-01-14 00:00:00
KE 004 RKSI KOREAN B77... 2024-01-12 00:00:00
FX 720 EBLG B77F 2024-01-10 00:00:00
FX 277 KEWR MD11F 2024-01-10 00:00:00
FX 715 WSSS B77F 2024-01-09 00:00:00
FX 292 EHAM B77F 2024-01-09 00:00:00
FX 285 OMDB FEDEX-B77F 2024-02-10 00:00:00
FX 318 EGCC B77F 2024-01-08 00:00:00
FX318 EGCC B77F 2024-01-07 00:00:00
FX WINTER 22 LOWI B738 2024-01-07 00:00:00
FX 722 EDDF B77F 2024-01-07 00:00:00
FX 715 WSSS B77F 2024-01-07 00:00:00
FX 158 KMEM B77F 2024-01-07 00:00:00
FX 715 WSSS B77F 2024-01-05 00:00:00
FX WINTER 22 LOWI B738 2024-01-05 00:00:00
FX WINTER 22 LOWI B738 2024-01-05 00:00:00
FX 285 OMDB B77F 2024-01-04 00:00:00
FX 292 EHAM B77F 2024-01-03 00:00:00
FX 292 EHAM MD11F 2024-01-03 00:00:00
FX WINTER 22 LOWI B738 2024-01-04 00:00:00
FX 277 KEWR B77F 2024-01-02 00:00:00
FX 158 KMEM B77F 2024-01-03 00:00:00
FX310 VABB B77F 2024-01-01 00:00:00
FX 310 VABB MD11F 2024-01-01 00:00:00
FX 309 KIND B77F 2024-01-01 00:00:00
FX 304 ZGGG B77F 2023-12-31 00:00:00
FX 704 RJBB B77F 2023-12-30 00:00:00
FX WINTER 22 LOWI B738 2023-12-27 00:00:00
FX WINTER 22 LOWI B738 2023-12-27 00:00:00
FX 912 LPPR B752 2023-12-27 00:00:00
FX 318 EGCC B752 2023-12-27 00:00:00
FX 285 OMDB B77F 2023-12-28 00:00:00
FX WINTER 22 LOWI B738 2023-12-26 00:00:00
FX WINTER 22 LOWI B738 2023-12-22 00:00:00
FX722 EDDF B77F 2023-12-20 00:00:00
FX WINTER 22 LOWI B738 2023-12-19 00:00:00
FX 715 WSSS B77F 2023-12-19 00:00:00
FX CTR NZAA B77F 2023-12-19 00:00:00
FX 281 LEMD B77F 2023-12-18 00:00:00
FX WINTER 22 LOWI B738 2023-12-18 00:00:00
FX WINTER 22 LOWI B738 2023-12-17 00:00:00
FX 158 KMEM B77F 2023-12-16 00:00:00
FX310 VABB MD11F 2023-12-15 00:00:00
FX 305 EFHK B738 2023-12-14 00:00:00
FX 285 OMDB B77F 2023-12-13 00:00:00
FX 722 EDDF B77F 2023-12-10 00:00:00
FXWINTER2 LOWI B738 2023-12-10 00:00:00
FX722 EDDF B77F 2023-12-09 00:00:00
FX 722 EDDF B77F 2023-12-08 00:00:00
FX WINTER 22 LOWI B738 2023-12-06 00:00:00
FX WINTER 22 LOWI B738 2023-12-04 00:00:00
FX CTR RJTT B77F 2023-12-03 00:00:00
FX CTR OMDB B77F 2023-12-03 00:00:00
FX 715 WSSS B77F 2023-12-03 00:00:00
FX 304 ZGGG B77F 2023-12-03 00:00:00
FX 722 EDDF B77F 2023-12-02 00:00:00
FX310 VABB MD11F 2023-11-29 00:00:00
FX CTR VAAB B77F 2023-11-29 00:00:00
FX1222 KBGR B752 2023-11-26 00:00:00
FX 740 OMDW B77F 2023-11-23 00:00:00
FX 310 VABB B77F 2023-11-22 00:00:00
FX CTR KJFK B77F 2023-11-20 00:00:00
FX277 KEWR B77F 2023-11-19 00:00:00
FX 288 EKCH B738 2023-11-17 00:00:00
FX CTR KRDU B77F 2023-11-16 00:00:00
FX ATC LFPG IFATC 2023-11-15 00:00:00
FXCTR EGLL B77F 2023-11-12 00:00:00
FX294 LEBL B77F 2023-11-12 00:00:00
FX715 WSSS B77F 2023-11-11 00:00:00
FX285 OMDB MD11F 2023-11-08 00:00:00
FX 715 WSSS B77F 2023-11-06 00:00:00
FX902 LFBO B738 2023-11-02 00:00:00
KE 004 RKSI KOREAN B77... 2023-11-03 00:00:00
KE 00 4 KEWR KOREAN B77... 2023-11-02 00:00:00
FX158 KMEM B77F 2023-10-31 00:00:00
FX914 EIDW B738 2023-10-27 00:00:00
FX314 RJAA B77F 2023-10-23 00:00:00
FX 715 WSSS B77F 2023-10-20 00:00:00
FX902 LFBO B738 2023-10-15 00:00:00
FX277 KEWR MD11F 2023-10-15 00:00:00
FX285 OMDB B77F 2023-10-12 00:00:00
FX 922 LROP B738 2023-10-11 00:00:00
FX 302 LGAV B77F 2023-10-10 00:00:00
FX 902 LFBO B738 2023-10-08 00:00:00
FX902 LFBO B738 2023-10-08 00:00:00
FX 902 LFBO B738 2023-10-08 00:00:00
FX 285 OMDB B77F 2023-10-08 00:00:00
FX 290 EGSS B77F 2023-10-05 00:00:00
FX 283 ESSA MD11F 2023-10-02 00:00:00
FX 285 OMDB B77F 2023-10-01 00:00:00
FX 1198 LFSB B752 2023-09-30 00:00:00
FX 930 LEVT B738 2023-09-28 00:00:00
FX288 EKCH B77F 2023-09-24 00:00:00
FX302 LGAV B77F 2023-09-20 00:00:00
FX 715 WSSS B77F 2023-09-20 00:00:00
FX 286 VIDP B77F 2023-09-20 00:00:00
FX ROTW LEBL TNT B77F 2023-09-19 00:00:00
FX CTR KBFI B77F 2023-09-16 00:00:00
FX ROTW LTFJ B738 2023-09-14 00:00:00
FX 288 EKCH B77F 2023-09-14 00:00:00
FX 280 LIMC B77F 2023-09-13 00:00:00
FX 277 KEWR MD11F 2023-09-14 00:00:00
FX 291 EDDK B77F 2023-09-11 00:00:00
FX 291 EDDK B77F 2023-09-08 00:00:00
FX 283 ESSA B77F 2023-09-09 00:00:00
FX ROTW LEMD B738 2023-09-08 00:00:00
FX 290 EGSS B77F 2023-09-07 00:00:00
FX 290 EGSS B77F 2023-09-07 00:00:00
FX 740 OMDW B77F 2023-09-03 00:00:00
FX 304 ZGGG B77F 2023-09-03 00:00:00
FX 304 ZGGG B77F 2023-09-02 00:00:00
FX 304 ZGGG B77F 2023-09-02 00:00:00
FX CTR EGLL B77F 2023-08-26 00:00:00
FX 715 WSSS B77F 2023-08-24 00:00:00
FX CTR KMEM B77F 2023-08-23 00:00:00
FX 318 EGCC B77F 2023-08-21 00:00:00
FX 304 ZGGG B77F 2023-08-21 00:00:00
FX304 ZGGG B77F 2023-08-16 00:00:00
FX 304 ZGGG B77F 2023-08-16 00:00:00
FX WORLD 12 LFBO DC10F 2023-08-11 00:00:00
FX722 EDDF B77F 2023-08-10 00:00:00
FX 290 EGSS MD11F 2023-08-10 00:00:00
FX921 EPWA B738 2023-08-08 00:00:00
FX300 LTBA B77F 2023-08-06 00:00:00
FX318 EGCC B752 2023-08-04 00:00:00
FX947 OEJN B738 2023-08-04 00:00:00
FX312 LLBG B738 2023-08-02 00:00:00
FX ROTW EHAM B752 2023-07-30 00:00:00
TNT 094 EBLG TNT B77F 2023-07-27 00:00:00
FX 296 EGBB MD11F 2023-07-27 00:00:00
FX ROTW EGLL B738 2023-07-26 00:00:00
FX720 EBLG B77F 2023-07-24 00:00:00
FX 930 LEVT B738 2023-07-23 00:00:00
FX 312 LLBG B738 2023-07-23 00:00:00
FX 277 KEWR B77F 2023-07-22 00:00:00
FX 277 KEWR B77F 2023-07-22 00:00:00
FX CTR KMIA B77F 2023-07-18 00:00:00
FX 715 WSSS B77F 2023-07-18 00:00:00
FX WORLD 12 LFBO DC10F 2023-07-15 00:00:00

Arrivals History (last 12 months)

Flight No. Origin Aircraft Date
CONNECT 43 EINN FEDEX-MD11... 2024-07-11 00:00:00
FX157 KMEM FEDEX-B77F 2024-07-10 00:00:00
FX 504 KEWR FEDEX-B77F 2024-07-09 00:00:00
FX 278 EDDM FEDEX-DC10... 2024-07-06 00:00:00
FX 814 LTFM IF-LIVERY-... 2024-07-03 00:00:00
FX CTR KOAK FEDEX-B77F 2024-06-30 00:00:00
FX 157 KMEM FEDEX-B77F 2024-06-30 00:00:00
FX 157 KMEM FEDEX-B77F 2024-06-27 00:00:00
CONNECT21 EHAM FEDEX-B77F 2024-06-25 00:00:00
FX 685 RPLC FEDEX-B77F 2024-06-23 00:00:00
FX504 KEWR FEDEX-B77F 2024-06-22 00:00:00
FX 504 KEWR FEDEX-B77F 2024-06-19 00:00:00
FX 307 VHHH FEDEX-B77F 2024-06-20 00:00:00
FX 292 EHAM FEDEX-B77F 2024-06-19 00:00:00
CONNECT113 LEMD FEDEX-B77F 2024-06-19 00:00:00
CONNECT113 LEMD FEDEX-B77F 2024-06-19 00:00:00
CONNECT113 LEMD FEDEX-B77F 2024-06-19 00:00:00
CONNECT113 LEMD FEDEX-B77F 2024-06-19 00:00:00
CONNECT113 LEMD FEDEX-B77F 2024-06-18 00:00:00
FX 316 EINN FEDEX-MD11... 2024-06-10 00:00:00
TNT 093 EBLG TNT-B77F 2024-06-10 00:00:00
FX ATC LFPG IFATC 2024-06-09 00:00:00
FX 157 KMEM FEDEX-B77F 2024-06-07 00:00:00
FX 335 RJBB FEDEX-MD11... 2024-06-06 00:00:00
CONNECT 65 LGAV FEDEX-MD11... 2024-05-26 00:00:00
CONNECT 65 LGAV FEDEX-MD11... 2024-05-24 00:00:00
FX 157 KMEM FEDEX-B77F 2024-05-23 00:00:00
FX 314 RJAA FEDEX-B77F 2024-05-22 00:00:00
FX 286 VIDP FEDEX-MD11... 2024-05-21 00:00:00
CONNECT 65 LGAV FEDEX-MD11... 2024-05-22 00:00:00
CONNECT 65 LGAV FEDEX-MD11... 2024-05-21 00:00:00
FX302 LGAV FEDEX-MD11... 2024-05-20 00:00:00
FX CTR EIDW FEDEX-MD11... 2024-05-20 00:00:00
FX 288 EKCH FEDEX-B77F 2024-05-20 00:00:00
FX310 VABB FEDEX-MD11... 2024-05-18 00:00:00
FX 157 KMEM FEDEX-B77F 2024-05-18 00:00:00
FNF 06 LEMD FEDEX-B77F 2024-05-18 00:00:00
FNF 06 LEMD FEDEX-B77F 2024-05-18 00:00:00
FX EVENT LEMD FEDEX-MD11... 2024-05-18 00:00:00
FX 307 VHHH FEDEX-MD11... 2024-05-17 00:00:00
FX 281 LEMD FEDEX-MD11... 2024-05-18 00:00:00
FNF 06 LEMD FEDEX-MD11... 2024-05-18 00:00:00
FNF 06 LEMD FEDEX-MD11... 2024-05-18 00:00:00
FNF 06 LEMD FEDEX-MD11... 2024-05-18 00:00:00
FNF 06 LEMD FEDEX-B77F 2024-05-18 00:00:00
FX ATC LFPG IFATC 2024-05-16 00:00:00
FXCL003 EDLW FEDEX-DC10... 2024-05-15 00:00:00
FXCL 003 EDLW FEDEX-DC10... 2024-05-15 00:00:00
FXCL 003 EDLW FEDEX-DC10... 2024-05-12 00:00:00
CONNECT 10 EGSS FEDEX-DC10... 2024-05-11 00:00:00
FX 335 RJBB FEDEX-B77F 2024-05-10 00:00:00
FX 234 EDDK FEDEX-B77F 2024-05-10 00:00:00
FXCL 003 EDLW FEDEX-DC10... 2024-05-09 00:00:00
FXCL 003 EDLW FEDEX-DC10... 2024-05-09 00:00:00
FXCL 003 EDLW FEDEX-DC10... 2024-05-08 00:00:00
FX 157 KMEM FEDEX-B77F 2024-05-08 00:00:00
CONNECT 10 EGSS FEDEX-DC10... 2024-05-08 00:00:00
CONNECT 10 EGSS FEDEX-DC10... 2024-05-07 00:00:00
CONNECT10 EGSS FEDEX-DC10... 2024-05-06 00:00:00
CONNECT 10 EGSS FEDEX-DC10... 2024-05-05 00:00:00
FX 157 KMEM FEDEX-B77F 2024-05-05 00:00:00
FX 302 LGAV FEDEX-MD11... 2024-05-02 00:00:00
FX ATC LFPG IFATC 2024-04-29 00:00:00
FX 335 RJBB FEDEX-B77F 2024-04-27 00:00:00
FX 757 EGSS FEDEX-MD11... 2024-04-26 00:00:00
FX909 LIPE GENERIC-B7... 2024-04-26 00:00:00
FX 604 ZGGG FEDEX-MD11... 2024-04-25 00:00:00
FX 157 KMEM FEDEX-B77F 2024-04-25 00:00:00
CONNECT 333 EGCC FEDEX-DC10... 2024-04-25 00:00:00
CONNECT 333 EGCC FEDEX-DC10... 2024-04-24 00:00:00
CONNECT 333 EGCC FEDEX-B77F 2024-04-24 00:00:00
CONNECT 333 EGCC FEDEX-DC10... 2024-04-24 00:00:00
FX ATC LFPG IFATC 2024-04-23 00:00:00
CONNECT333 EGCC FEDEX-DC10... 2024-04-21 00:00:00
CONNECT 333 EGCC FEDEX-DC10... 2024-04-21 00:00:00
FX 157 KMEM FEDEX-B77F 2024-04-20 00:00:00
FX 314 RJAA FEDEX-MD11... 2024-04-19 00:00:00
FX 286 VIDP FEDEX-B77F 2024-04-19 00:00:00
FX307 VHHH FEDEX-B77F 2024-04-18 00:00:00
FX 504 KEWR FEDEX-B77F 2024-04-18 00:00:00
FX604 ZGGG FEDEX-B77F 2024-04-17 00:00:00
FX275 LOWW FEDEX-B77F 2024-04-15 00:00:00
CONNECT 4008 EDDM FEDEX-DC10... 2024-04-13 00:00:00
CONNECT 4008 EDDM FEDEX-DC10... 2024-04-11 00:00:00
CONNECT 4008 EDDM FEDEX-DC10... 2024-04-11 00:00:00
CONNECT 4008 EDDM FEDEX-DC10... 2024-04-11 00:00:00
CONNECT 4008 EDDM FEDEX-DC10... 2024-04-11 00:00:00
CONNECT 4008 EDDM FEDEX-DC10... 2024-04-11 00:00:00
FX234 EDDK FEDEX-MD11... 2024-04-09 00:00:00
FX 157 KMEM FEDEX-B77F 2024-04-09 00:00:00
FX 281 LEMD FEDEX-B77F 2024-04-08 00:00:00
CONNECT 22 LOWW FEDEX-MD11... 2024-04-08 00:00:00
FX 157 KMEM FEDEX-B77F 2024-04-06 00:00:00
FX 157 KMEM FEDEX-B77F 2024-04-03 00:00:00
FX 757 EGSS FEDEX-MD11... 2024-04-02 00:00:00
FX 804 EDDF FEDEX-B77F 2024-04-01 00:00:00
FX 757 EGSS FEDEX-MD11... 2024-04-01 00:00:00
FX 318 EGCC FEDEX-MD11... 2024-04-01 00:00:00
FX 157 KMEM FEDEX-B77F 2024-04-01 00:00:00
FX CZR KEWR FEDEX-MD11... 2024-03-30 00:00:00
FX 307 VHHH FEDEX-B77F 2024-03-29 00:00:00
CONNECT77 KEWR FEDEX-MD11... 2024-03-29 00:00:00
CONNECT 17 EGBB FEDEX-DC10... 2024-03-30 00:00:00
CONNECT 77 KEWR FEDEX-MD11... 2024-03-28 00:00:00
CONNECT 77 KEWR FEDEX-MD11... 2024-03-28 00:00:00
CONNECT 77 KEWR FEDEX-MD11... 2024-03-25 00:00:00
FX 604 ZGGG FEDEX-MD11... 2024-03-22 00:00:00
FX 157 KMEM FEDEX-B77F 2024-03-20 00:00:00
CONNECT83 EKCH IF-LIVERY-... 2024-03-28 00:00:00
CONNECT 83 EKCH IF-LIVERY-... 2024-03-19 00:00:00
FX 314 RJAA FEDEX-B77F 2024-03-18 00:00:00
CONNECT 83 EKCH FEDEX-B77F 2024-03-17 00:00:00
CONNECT 83 EKCH IF-LIVERY-... 2024-03-17 00:00:00
FX 1263 LKTB GENERIC-B7... 2024-03-12 00:00:00
FX 286 VIDP FEDEX-B77F 2024-03-11 00:00:00
FX CTR KOAK FEDEX-B77F 2024-03-08 00:00:00
FXCTR PANC FEDEX-B77F 2024-03-06 00:00:00
FX 307 VHHH FEDEX-MD11... 2024-03-03 00:00:00
FX 419 LIMC FEDEX-MD11... 2024-03-02 00:00:00
FX 314 RJAA FEDEX-MD11... 2024-03-01 00:00:00
FX 157 KMEM FEDEX-B77F 2024-03-01 00:00:00
FX 307 VHHH FEDEX-MD11... 2024-02-26 00:00:00
FX CTR KOAK FEDEX-B77F 2024-02-25 00:00:00
FX CTR KOAK FEDEX-B77F 2024-02-19 00:00:00
CONNECT92 EGBB FEDEX-MD11... 2024-02-15 00:00:00
CONNECT92 EGBB FEDEX-DC10... 2024-02-15 00:00:00
CONNECT 9208 EGBB FEDEX-MD11... 2024-02-13 00:00:00
FX 157 KMEM FEDEX-B77F 2024-02-11 00:00:00
CONNECT 9208 EGBB FEDEX-MD11... 2024-02-12 00:00:00
FX 311 VABB FEDEX-MD11... 2024-02-10 00:00:00
CONNECT 501 LEBL FEDEX-MD11... 2024-02-10 00:00:00
FX 311 VABB FEDEX-MD11... 2024-02-09 00:00:00
CONNECT 501 LEBL FEDEX-MD11... 2024-02-10 00:00:00
CONNECT 501 LEBL FEDEX-MD11... 2024-02-10 00:00:00
CONNECT 501 LEBL FEDEX-MD11... 2024-02-09 00:00:00
FX 157 KMEM FEDEX-B77F 2024-02-08 00:00:00
CONNECT 501 LEBL FEDEX-MD11... 2024-02-09 00:00:00
CONNECT 501 LEBL FEDEX-B77F 2024-02-09 00:00:00
CONNECT 501 LEBL FEDEX-MD11... 2024-02-08 00:00:00
FX 718 RPLC FEDEX-B77F 2024-02-08 00:00:00
CONNECT 501 LEBL FEDEX-MD11... 2024-02-07 00:00:00
FX 593 OMDB FEDEX-MD11... 2024-02-07 00:00:00
FX ATC LFPG IFATC 2024-02-05 00:00:00
FX374 KIND FEDEX-B77F 2024-02-05 00:00:00
FX 157 KMEM FEDEX-MD11... 2024-02-05 00:00:00
CONNECT50 LEBL FEDEX-MD11... 2024-02-04 00:00:00
FX 718 RPLC FEDEX-B77F 2024-02-02 00:00:00
FX841 EDDF FEDEX-B77F 2024-01-29 00:00:00
FX 295 LEBL FEDEX-B77F 2024-01-28 00:00:00
FX295 LEBL FEDEX-B77F 2024-01-28 00:00:00
FX 308 VHHH FEDEX-B77F 2024-01-28 00:00:00
FX EVENT EDDK FEDEX-B77F 2024-01-27 00:00:00
FX EVENT EDDK FEDEX-B77F 2024-01-27 00:00:00
FX EVENT EDDK FEDEX-B77F 2024-01-27 00:00:00
FX EVENT EDDK FEDEX-B77F 2024-01-27 00:00:00
FX 593 OMDB FEDEX-B77F 2024-01-27 00:00:00
FX CTR KMIA FEDEX-B77F 2024-01-22 00:00:00
FX315 RJAA FEDEX-B77F 2024-01-21 00:00:00
FX 841 EDDF FEDEX-B77F 2024-01-18 00:00:00
TNT 093 EBLG TNT-B77F 2024-01-14 00:00:00
FX CTR KOAK FEDEX-B77F 2024-01-13 00:00:00
FX 374 KIND B77F 2024-01-11 00:00:00
FX 507 KEWR DC10F 2024-01-09 00:00:00
FX 319 EGCC B77F 2024-01-09 00:00:00
FX841 EDDF MD11F 2024-01-08 00:00:00
FX 374 KIND B77F 2024-01-08 00:00:00
FX593 OMDB B77F 2024-01-07 00:00:00
FX319 EGCC B77F 2024-01-07 00:00:00
FX CTR ENGM B77F 2024-01-08 00:00:00
FX 632 ZGGG B77F 2024-01-08 00:00:00
FX 336 RJBB B77F 2024-01-08 00:00:00
FX 308 VHHH MD11F 2024-01-07 00:00:00
FX 297 EGBB B77F 2024-01-07 00:00:00
FX 157 KMEM B77F 2024-01-07 00:00:00
FX WINTER 21 EGPH B752 2024-01-06 00:00:00
FX 593 OMDB B77F 2024-01-06 00:00:00
FX 157 KMEM B77F 2024-01-07 00:00:00
FX WINTER 21 EGPH B752 2024-01-05 00:00:00
FX 293 EHAM B77F 2024-01-04 00:00:00
FX WINTER 21 EGPH B752 2024-01-04 00:00:00
FX 507 KEWR MD11F 2024-01-03 00:00:00
FX CTR KMIA B77F 2024-01-01 00:00:00
FX 311 VABB MD11F 2024-01-01 00:00:00
FXWINTER2 EGPH B752 2024-01-02 00:00:00
FX 741 OMDW B77F 2024-01-01 00:00:00
FX 315 RJAA MD11F 2023-12-31 00:00:00
FX336 RJBB B77F 2024-01-01 00:00:00
FX 507 KEWR B77F 2023-12-30 00:00:00
FX 235 EDDK B77F 2023-12-30 00:00:00
FX WINTER 21 EGPH B752 2023-12-26 00:00:00
FX WINTER 21 EGPH B752 2023-12-26 00:00:00
FX 157 KMEM B77F 2023-12-27 00:00:00
FX WINTER 21 EGPH B752 2023-12-25 00:00:00
FX WINTER 21 EGPH B752 2023-12-22 00:00:00
FX WINTER 21 EGPH B752 2023-12-22 00:00:00
FX 841 EDDF B77F 2023-12-30 00:00:00
FX WINTER 21 EGPH B752 2023-12-19 00:00:00
FX303 LGAV B77F 2023-12-18 00:00:00
FX WINTER 21 EGPH B752 2023-12-17 00:00:00
FX 157 KMEM B77F 2023-12-17 00:00:00
FX WINTER 21 EGPH B752 2023-12-17 00:00:00
FXWINTER2 EGPH B752 2023-12-10 00:00:00
FX308 VHHH B77F 2023-12-09 00:00:00
FX WINTER 21 EGPH B752 2023-12-06 00:00:00
FX WINTER 21 EGPH B752 2023-12-04 00:00:00
FX EVENT EDDK MD11F 2023-12-02 00:00:00
FX EVENT EDDK MD11F 2023-12-02 00:00:00
FX EVENT EDDK MD11F 2023-12-02 00:00:00
FX EVENT EDDK MD11F 2023-12-02 00:00:00
FX CTR EDDK MD11F 2023-12-02 00:00:00
FX CTR LEBL MD11F 2023-12-02 00:00:00
FX 293 EHAM MD11F 2023-12-02 00:00:00
FX 157 KMEM MD11F 2023-12-02 00:00:00
FX 311 VABB MD11F 2023-11-28 00:00:00
FX 157 KMEM B77F 2023-11-27 00:00:00
FX 157 KMEM B77F 2023-11-22 00:00:00
FX CTR VIDP MD11F 2023-11-21 00:00:00
FX ROTW KJFK B77F 2023-11-19 00:00:00
FX 289 EKCH B77F 2023-11-18 00:00:00
FX CTR NTAA B77F 2023-11-15 00:00:00
FX CTR WSSS B77F 2023-11-15 00:00:00
FX ATC LFPG IFATC 2023-11-15 00:00:00
FXROTW KJFK B77F 2023-11-13 00:00:00
FX295 LEBL B77F 2023-11-12 00:00:00
FX ROTW KJFK B77F 2023-11-13 00:00:00
FX 841 EDDF B77F 2023-11-13 00:00:00
FX 284 ESSA B77F 2023-11-08 00:00:00
FX 157 KMEM B77F 2023-11-05 00:00:00
FX276 LOWW MD11F 2023-11-02 00:00:00
FX157 KMEM MD11F 2023-11-02 00:00:00
FX941 LIPZ B738 2023-11-01 00:00:00
FX886 LJLJ B738 2023-11-01 00:00:00
KE003 RKSI B77F 2023-10-27 00:00:00
FX157 KMEM MD11F 2023-10-23 00:00:00
FX 793 EGSS MD11F 2023-10-23 00:00:00
FX593 OMDB B77F 2023-10-21 00:00:00
FX593 OMDB MD11F 2023-10-17 00:00:00
FX CTR WSSS TNT B77F 2023-10-18 00:00:00
FX507 KEWR B77F 2023-10-14 00:00:00
FX 157 KMEM B77F 2023-10-10 00:00:00
FX311 VABB B77F 2023-10-08 00:00:00
FX 311 VABB B77F 2023-10-08 00:00:00
FX 374 KIND B77F 2023-10-08 00:00:00
FX 289 EKCH B77F 2023-10-06 00:00:00
FX 946 LIPE B738 2023-10-02 00:00:00
FX 301 LTBA MD11F 2023-09-28 00:00:00
FX CTR KLGB B77F 2023-09-28 00:00:00
FX718 RPLC B77F 2023-09-25 00:00:00
FX 319 EGCC B77F 2023-09-25 00:00:00
FX CTR EGLL MD11F 2023-09-23 00:00:00
FX CTR KSAN B77F 2023-09-20 00:00:00
FX CTR KMIA B77F 2023-09-19 00:00:00
FX CTR KMIA B77F 2023-09-19 00:00:00
FX336 RJBB B77F 2023-09-18 00:00:00
FX CTR OERK B77F 2023-09-15 00:00:00
FX 420 LIMC B77F 2023-09-14 00:00:00
FX 507 KEWR MD11F 2023-09-13 00:00:00
FX CTR NZAA B77F 2023-09-12 00:00:00
FX CTR NZAA B77F 2023-09-12 00:00:00
FX 235 EDDK B77F 2023-09-12 00:00:00
FX 284 ESSA B77F 2023-09-11 00:00:00
FX279 EDDM B752 2023-09-09 00:00:00
FX 235 EDDK B77F 2023-09-09 00:00:00
FX 311 VABB B77F 2023-09-02 00:00:00
FX 593 OMDB B77F 2023-09-01 00:00:00
FX 157 KMEM B77F 2023-08-26 00:00:00
FX CTR YSSY B77F 2023-08-25 00:00:00
FX 157 KMEM B77F 2023-08-23 00:00:00
FX 157 KMEM B77F 2023-08-23 00:00:00
FX 157 KMEM B77F 2023-08-15 00:00:00
FX632 ZGGG B77F 2023-08-11 00:00:00
FX WORLD 11 EGLL C208 2023-08-11 00:00:00
FX311 VABB B77F 2023-08-09 00:00:00
FX 722 EDDF B77F 2023-08-08 00:00:00
FX319 EGCC MD11F 2023-08-07 00:00:00
FX 282 LEMD B77F 2023-08-06 00:00:00
FX319 EGCC B752 2023-08-04 00:00:00
FX293 EHAM B77F 2023-07-29 00:00:00
TNT 093 EBLG TNT B77F 2023-07-27 00:00:00
FX 313 LLBG B738 2023-07-24 00:00:00
FX 235 EDDK B77F 2023-07-21 00:00:00
FX 593 OMDB B77F 2023-07-20 00:00:00
FX CTR RKSI B77F 2023-07-17 00:00:00
FX CTR RKSI B77F 2023-07-17 00:00:00

Runway Information (Airport elevation: 355ft)

Runway 08L Length 13,836ft Width 151ft Elevation 341ft Surface Asphalt Heading 85
Runway 08R Length 8,861ft Width 188ft Elevation 341ft Surface Asphalt Heading 85
Runway 09L Length 8,896ft Width 198ft Elevation 345ft Surface Asphalt Heading 85
Runway 09R Length 13,783ft Width 149ft Elevation 347ft Surface Asphalt Heading 85
Runway 26L Length 8,861ft Width 188ft Elevation 341ft Surface Asphalt Heading 265
Runway 26R Length 13,836ft Width 151ft Elevation 341ft Surface Asphalt Heading 265
Runway 27L Length 13,783ft Width 149ft Elevation 347ft Surface Asphalt Heading 265
Runway 27R Length 8,896ft Width 198ft Elevation 345ft Surface Asphalt Heading 265

Airport Frequencies

Type Ground Frequency 121.680 Mhz
Type Ground Frequency 121.880 Mhz
Type Ground Frequency 121.930 Mhz
Type Ground Frequency 125.330 Mhz
Type Ground Frequency 131.605 Mhz
Type Tower Frequency 118.655 Mhz
Type Tower Frequency 119.250 Mhz
Type Tower Frequency 119.630 Mhz
Type Tower Frequency 120.655 Mhz
Type Tower Frequency 120.900 Mhz
Type Tower Frequency 123.605 Mhz
Type Tower Frequency 125.330 Mhz
Type APP/DEP Frequency 138.575 Mhz
Type APP/DEP Frequency 140.575 Mhz
Type D Frequency 124.355 Mhz
Type D Frequency 131.200 Mhz
Type D Frequency 133.380 Mhz
Type Ground Frequency 121.580 Mhz
Type Ground Frequency 121.640 Mhz
Type Ground Frequency 121.680 Mhz
Type Ground Frequency 121.880 Mhz
Type Ground Frequency 121.930 Mhz
Type Ground Frequency 131.605 Mhz
Type UC Frequency 142.450 Mhz
Type APP/DEP Frequency 118.150 Mhz
Type APP/DEP Frequency 119.850 Mhz
Type APP/DEP Frequency 121.155 Mhz
Type APP/DEP Frequency 124.355 Mhz
Type APP/DEP Frequency 125.830 Mhz
Type APP/DEP Frequency 126.430 Mhz
Type APP/DEP Frequency 126.575 Mhz
Type APP/DEP Frequency 131.200 Mhz
Type APP/DEP Frequency 133.380 Mhz
Type APP/DEP Frequency 136.275 Mhz
Type ATIS Frequency 127.130 Mhz
Type ATIS Frequency 128.230 Mhz
Type Clearance Frequency 121.730 Mhz
Type Clearance Frequency 121.840 Mhz
Type Ground Frequency 121.610 Mhz
Type Ground Frequency 121.780 Mhz
Type Ground Frequency 121.810 Mhz
Type Ground Frequency 121.980 Mhz
Type Ground Frequency 121.580 Mhz
Type Ground Frequency 121.640 Mhz

Airport Navaids

Type VOR-DME Ident CGN Frequency 115350 Khz
Type VOR-DME Ident PGS Frequency 117050 Khz